UFO 2 (USA 95)

Last updated on Thu Oct 30 2025 00:02:47 GMT+0000 (Coordinated Universal Time)

1 22787U 93056A 25302.26240274 .00000137 00000+0 00000+0 0 9997 2 22787 11.8153 4.7928 0005523 242.5568 273.7327 1.00277533116236
UTC large
Height (km)
Speed (km/s)
/
Latitude / Longitude
Inclination (degrees)
Orbital Period (minutes)
Azimuth
Elevation
Range (km)
Doppler Factor

Next 0 passes for location: London (51.5072 / 0.1276)

Sorry there are no passes over London.